Location: Killam
(52.7910°N, 111.8608°W)
Time: 21:06:21
(UTC+00:00)

A-11 Canister half - Pass Details

Date: 21 February 2026
Orbit: 1525 x 1683 km, 47.3° (Epoch: 5 March)

Event Time Altitude Azimuth Distance (km) Brightness Sun altitude
Rises 00:13:04 0° 238° (WSW) 4,722 14.0 4.4°
Reaches altitude 10° 00:16:13 10° 234° (SW) 3,724 13.1 3.9°
Maximum altitude 00:25:11 54° 161° (SSE) 1,814 9.5 2.7°
Drops below altitude 10° 00:34:06 10° 88° (E) 3,696 10.4 1.4°
Sets 00:37:13 0° 84° (E) 4,685 10.9 1.0°
